Wetbulb
70.26 71.20 72.46 72.69 72.40 71.15 70.89 70.36 69.16 69.12 68.26 67.54 67.64 67.88 67.89 67.40 67.40 66.43 67.39 67.65 66.98 66.36 67.09 67.10 67.03 67.83 67.89 68.09 68.77 68.13 67.09 64.50 60.28 60.43 61.82 62.25 62.61 63.18 63.21 63.10 62.78 62.95 63.96
69.15 71.81 71.99 72.32 71.62 69.95 69.45 70.02 70.14 69.30 68.82 67.97 67.98 67.75 67.65 67.92 68.12 65.95 66.16 67.80 66.47 66.56 66.60 66.60 66.76 69.34 67.28 68.16 67.77 66.92 66.91 63.89 61.31 58.81 59.96 59.84 61.03 61.89 61.88 61.70 61.99 62.29 62.53
71.57 71.50 71.50 70.55 70.25 70.14 70.06 70.19 70.08 69.41 69.41 69.22 67.52 64.66 63.32 64.69 65.44 66.14 66.97 66.66 66.15 65.50 65.84 65.92 65.99 67.46 66.69 66.85 66.71 66.01 64.88 63.14 62.15 60.28 58.58 58.70 59.46 60.92 61.14 61.60 60.97 59.81 61.63
71.52 71.26 70.68 69.07 70.27 70.25 69.71 69.91 70.03 69.60 68.38 66.00 65.91 64.29 63.68 64.89 66.11 66.21 66.87 65.96 65.50 65.72 65.42 65.01 64.25 65.41 65.69 66.29 66.33 64.82 64.01 61.46 60.13 59.54 58.19 57.83 58.37 59.62 60.29 60.14 59.36 58.77 58.45
71.48 70.45 69.92 69.42 70.21 70.16 69.70 69.42 69.26 68.72 68.46 66.95 66.69 65.70 64.69 64.85 65.76 64.46 66.37 66.07 65.12 64.20 64.94 63.25 61.61 63.13 64.83 65.02 66.06 64.37 61.95 60.51 59.33 58.53 57.69 57.15 56.97 57.75 58.19 59.47 58.78 59.16 57.86
70.75 69.83 70.33 69.65 69.67 69.38 69.07 68.72 68.61 67.95 67.86 67.10 66.39 65.85 64.89 66.71 61.67 63.42 64.71 63.93 63.84 64.24 63.57 61.77 62.32 63.45 62.91 63.31 63.83 65.20 64.23 61.20 59.17 57.87 57.85 57.19 57.15 57.64 58.70 58.39 58.01 56.56 54.03
70.26 70.31 70.02 69.70 69.18 69.34 68.95 68.37 67.70 67.13 67.20 66.62 66.18 66.12 65.22 61.49 60.71 62.18 63.49 64.44 63.82 63.47 63.30 64.13 63.24 64.73 62.49 61.45 62.19 62.51 63.05 64.07 63.20 60.51 57.57 57.09 57.51 58.31 58.97 58.27 57.02 56.60 55.49
71.01 70.84 70.03 70.31 69.42 69.28 68.47 67.73 67.39 67.42 66.23 65.89 66.19 66.05 64.19 60.72 58.33 58.27 60.61 63.22 64.48 64.06 64.16 63.11 62.77 62.86 63.84 61.78 61.27 61.68 60.91 61.75 63.82 64.91 61.84 58.94 58.83 58.92 59.54 59.29 58.19 57.46 58.67
69.74 66.70 64.64 67.19 69.06 69.44 68.23 67.75 67.73 67.63 67.37 67.12 66.79 65.89 65.83 60.85 56.39 56.78 58.51 61.01 62.95 63.73 64.03 63.53 63.03 62.08 59.71 60.08 63.69 61.92 61.27 59.90 58.97 59.90 61.37 60.46 58.84 58.33 59.50 58.51 56.60 56.38 55.50
61.78 61.49 62.13 61.54 60.48 59.27 64.56 68.42 68.52 68.20 67.81 67.86 67.04 67.02 65.58 62.25 55.13 54.99 57.97 61.00 61.60 63.90 63.28 62.96 63.07 61.32 57.37 58.27 62.79 62.27 60.33 59.86 59.73 58.69 59.63 59.52 59.85 59.24 58.82 59.10 57.90 56.14 56.76
61.67 61.33 61.35 61.02 61.42 61.02 58.68 68.14 69.37 68.50 68.14 67.26 66.63 67.03 67.54 66.34 59.85 53.45 54.80 61.63 61.66 63.21 63.26 62.73 60.46 57.03 54.56 55.01 58.36 61.55 60.52 60.68 60.08 59.66 59.73 59.87 60.99 60.30 60.30 60.91 60.72 59.64 58.09
60.23 60.76 61.26 61.58 61.64 61.54 60.23 65.85 69.48 68.93 67.66 67.28 66.61 66.72 68.02 67.66 61.02 53.79 54.21 57.22 60.63 62.43 63.47 63.65 62.88 54.47 52.20 52.29 54.38 55.07 54.48 56.26 59.95 59.95 59.17 59.00 59.24 59.24 59.60 59.92 60.58 61.17 61.15
60.68 60.57 61.87 61.35 65.13 62.70 63.61 69.05 69.07 69.14 68.11 67.24 67.42 66.69 66.24 66.46 64.56 56.96 55.09 56.42 57.21 58.37 61.90 60.90 54.93 51.40 49.99 51.52 52.89 52.53 52.24 52.99 54.08 54.23 55.55 58.89 60.52 61.52 60.45 58.67 58.98 58.83 59.23
62.41 61.90 61.82 62.35 62.02 67.48 68.52 69.93 69.33 68.97 68.40 67.53 66.40 64.45 64.70 65.13 65.60 63.47 60.37 58.17 57.33 59.56 58.75 54.91 53.82 53.33 52.92 54.36 52.44 50.00 50.26 52.03 54.64 53.74 54.31 56.75 56.95 59.69 60.24 61.22 59.61 59.25 58.55
64.55 65.25 65.20 63.87 65.25 67.35 66.06 62.32 65.62 66.99 66.60 66.67 64.81 63.95 64.16 63.79 58.60 55.01 59.68 62.68 63.00 59.66 60.57 60.90 57.40 57.32 56.96 57.46 55.69 53.94 52.30 52.00 50.92 52.16 54.68 55.14 54.25 53.77 57.72 62.02 61.06 59.64 58.63
58.88 60.87 62.04 63.80 65.33 65.15 62.52 60.95 54.65 55.55 53.02 50.66 53.74 58.80 59.14 54.29 49.75 46.85 46.31 46.85 48.49 51.75 60.41 61.11 61.49 61.10 60.52 59.99 59.07 57.02 57.84 57.28 55.31 55.64 55.03 55.83 54.67 55.28 56.06 55.80 55.79 54.73 56.07
56.88 57.76 57.90 58.09 59.88 63.43 62.36 61.05 59.44 57.01 50.12 50.30 47.76 49.39 50.12 50.48 47.94 47.40 46.85 44.86 45.58 51.93 60.28 59.38 59.07 59.60 59.01 59.19 59.05 59.09 58.85 59.77 59.66 58.68 57.21 55.95 56.11 56.40 56.02 55.65 55.53 55.01 54.09
57.94 53.99 57.09 57.65 58.99 59.26 59.80 63.22 60.97 59.74 58.53 55.84 48.47 50.48 47.94 47.76 46.67 42.87 43.37 46.85 53.49 53.17 57.16 58.98 58.11 59.00 59.11 59.01 59.07 58.77 58.71 58.77 57.93 57.03 56.56 56.88 56.54 56.20 55.42 55.36 55.46 54.35 53.81
56.92 56.90 56.82 56.92 57.05 57.73 58.83 58.70 58.82 59.68 60.34 58.45 57.43 51.00 46.20 44.10 44.81 43.92 43.23 55.19 57.45 57.49 58.04 59.48 58.77 57.99 58.61 58.23 57.75 56.88 56.24 55.32 54.92 54.70 54.58 54.72 54.76 54.37 53.62 53.86 53.35 50.40 51.38
57.40 56.13 56.42 56.10 55.84 56.52 57.43 58.73 58.87 58.41 59.30 60.12 58.47 57.45 53.06 51.28 53.71 53.74 53.80 55.83 56.40 59.49 60.46 59.35 58.01 57.25 56.72 56.20 54.98 54.05 53.49 51.75 52.72 52.68 51.98 52.74 53.09 52.72 51.60 50.91 50.53 50.55 49.43
59.75 59.51 57.88 57.63 57.07 55.77 55.49 56.68 56.80 55.34 57.73 58.05 59.23 58.79 51.57 56.82 58.31 57.68 58.98 59.01 59.32 59.09 59.19 58.61 58.15 57.88 56.64 54.90 53.86 52.90 52.20 52.49 51.92 51.81 51.47 51.47 51.47 50.87 51.23 52.06 51.95 52.52 52.64
55.60 56.65 58.74 58.63 59.62 59.37 57.74 56.30 56.20 58.92 56.21 56.50 58.79 55.78 50.58 58.70 57.62 57.24 57.30 57.78 58.12 57.33 56.95 55.58 54.17 54.00 53.72 53.89 53.54 52.88 51.30 50.67 51.14 51.76 52.95 54.23 53.61 51.66 51.04 50.62 50.64 50.21 52.01
55.39 54.74 54.55 56.02 56.56 57.35 59.61 59.43 58.75 58.35 59.45 59.00 58.65 57.58 56.17 55.39 55.03 55.38 55.32 55.37 55.24 54.33 54.63 54.13 53.59 53.85 52.19 51.53 50.81 49.91 48.80 48.66 49.61 49.82 49.00 49.67 49.61 50.61 51.03 50.56 52.10 51.49 48.78
55.09 55.12 55.36 53.97 56.79 57.38 58.18 58.17 57.71 55.66 57.94 56.35 55.97 56.28 55.70 54.91 54.95 54.55 54.41 54.28 53.90 53.11 52.77 52.32 52.37 51.28 50.76 49.90 48.03 44.46 41.83 38.59 44.03 41.92 44.12 45.71 47.50 47.43 47.71 47.72 48.14 46.97 46.41
56.34 57.43 57.35 56.94 56.27 56.50 57.39 56.29 55.86 55.11 54.99 54.89 54.58 54.53 55.03 53.62 51.96 52.14 52.79 51.90 52.96 50.35 49.36 48.98 46.96 44.56 42.03 39.92 37.91 36.07 32.55 30.32 33.79 33.69 38.40 41.22 44.13 46.45 46.46 45.90 45.81 45.01 44.45
56.29 57.14 56.26 55.37 55.57 55.59 55.21 55.09 54.74 55.09 54.79 54.77 54.74 53.24 52.24 51.60 51.23 51.78 51.62 52.19 52.40 48.50 46.17 45.37 43.88 42.12 39.94 37.57 34.17 31.83 30.93 30.17 32.19 31.01 33.06 41.61 44.92 44.57 44.45 43.55 43.28 43.50 43.16
MSLP
1007.89 1008.07 1007.89 1007.95 1008.47 1009.02 1009.56 1009.89 1010.17 1010.55 1010.93 1011.15 1011.24 1011.33 1011.54 1011.82 1012.14 1012.40 1012.45 1012.36 1012.65 1012.77 1012.81 1012.96 1013.22 1013.05 1012.96 1012.95 1013.01 1013.27 1013.82 1014.44 1015.69 1016.78 1017.05 1017.31 1017.43 1017.65 1017.80 1017.90 1017.97 1017.97 1018.09
1007.82 1008.24 1008.37 1008.30 1008.26 1008.91 1009.28 1009.66 1009.90 1010.34 1010.74 1010.97 1011.16 1011.26 1011.27 1011.44 1011.78 1012.06 1012.29 1012.28 1012.49 1012.72 1012.77 1012.87 1013.00 1012.92 1012.80 1012.67 1012.67 1012.93 1013.40 1014.09 1015.07 1016.15 1016.84 1017.24 1017.37 1017.78 1017.87 1018.06 1018.11 1018.23 1018.42
1008.02 1008.17 1008.51 1008.81 1008.93 1009.21 1009.36 1009.76 1009.93 1010.25 1010.69 1010.85 1011.13 1011.17 1011.19 1011.16 1011.45 1011.76 1012.09 1012.30 1012.38 1012.60 1012.64 1012.65 1012.88 1013.02 1013.03 1012.86 1012.96 1013.20 1013.58 1014.09 1014.66 1015.56 1016.62 1017.25 1017.59 1017.72 1018.02 1018.13 1018.32 1018.43 1018.64
1008.24 1008.48 1008.53 1008.90 1009.36 1009.49 1009.70 1010.05 1010.04 1010.19 1010.50 1010.87 1010.89 1010.85 1011.06 1011.11 1011.28 1011.65 1012.06 1012.21 1012.21 1012.50 1012.71 1012.77 1013.05 1013.07 1013.13 1013.15 1013.41 1013.76 1014.18 1014.60 1015.12 1015.83 1016.62 1017.05 1017.47 1017.84 1017.97 1018.09 1018.40 1018.58 1018.81
1008.08 1008.23 1008.45 1008.68 1008.86 1009.56 1010.11 1010.34 1010.38 1010.42 1010.47 1010.67 1010.74 1010.82 1011.15 1010.99 1011.06 1011.35 1011.70 1012.15 1012.38 1012.39 1012.60 1012.86 1013.12 1013.26 1013.07 1012.91 1013.10 1013.58 1014.14 1014.67 1015.21 1015.76 1016.28 1016.81 1017.22 1017.52 1017.64 1017.81 1018.18 1018.33 1018.69
1007.80 1008.16 1008.43 1008.66 1008.79 1009.14 1009.58 1010.02 1010.31 1010.50 1010.48 1010.61 1010.56 1010.52 1010.80 1010.99 1011.06 1011.11 1011.39 1011.66 1011.99 1012.33 1012.50 1012.78 1013.17 1013.43 1013.50 1013.36 1013.32 1013.50 1013.72 1014.15 1014.66 1015.32 1015.81 1016.14 1016.49 1016.80 1017.14 1017.48 1017.93 1018.22 1018.65
1007.92 1008.06 1008.03 1008.22 1008.47 1008.66 1008.81 1009.47 1010.18 1010.36 1010.26 1010.43 1010.38 1010.33 1010.76 1010.81 1010.99 1011.19 1011.35 1011.40 1011.69 1012.12 1012.10 1012.52 1012.99 1013.17 1013.47 1013.66 1013.66 1013.73 1013.80 1013.89 1014.07 1014.48 1015.09 1015.62 1015.99 1016.19 1016.66 1017.05 1017.20 1017.38 1017.60
1007.56 1007.78 1008.04 1008.26 1008.54 1008.83 1009.11 1009.49 1009.60 1010.16 1010.45 1010.40 1010.18 1010.16 1010.51 1010.87 1010.93 1011.04 1011.37 1011.61 1011.56 1011.90 1011.88 1011.94 1012.27 1012.88 1013.15 1013.41 1013.67 1013.74 1013.78 1013.79 1013.93 1014.10 1014.36 1014.80 1015.07 1015.53 1015.77 1016.14 1016.69 1017.19 1017.19
1007.66 1009.04 1009.90 1009.90 1009.45 1009.30 1009.61 1009.18 1009.45 1009.77 1010.17 1010.16 1010.02 1009.95 1010.28 1010.59 1010.90 1010.96 1011.04 1011.49 1011.67 1011.81 1011.78 1011.87 1012.06 1012.60 1012.78 1013.17 1013.38 1013.78 1013.82 1013.83 1013.76 1013.78 1013.97 1014.28 1014.83 1015.33 1015.79 1016.31 1016.62 1016.91 1017.02
1008.44 1009.40 1009.49 1009.27 1009.50 1010.10 1011.88 1009.96 1008.81 1009.03 1009.20 1009.71 1009.84 1009.66 1009.66 1010.35 1010.62 1010.83 1010.99 1011.33 1011.62 1011.74 1011.77 1011.87 1011.95 1012.21 1012.63 1012.95 1013.12 1013.52 1013.86 1013.90 1014.01 1014.31 1014.40 1014.52 1014.74 1015.24 1015.71 1015.95 1016.23 1016.41 1016.43
1008.26 1009.19 1008.54 1008.44 1007.69 1008.15 1009.37 1010.59 1008.40 1008.11 1008.55 1009.03 1009.42 1009.17 1009.20 1009.46 1010.18 1010.47 1010.61 1011.01 1011.30 1011.50 1011.68 1011.90 1011.94 1012.06 1012.40 1012.67 1012.99 1013.16 1013.37 1013.44 1013.93 1014.17 1014.36 1014.40 1014.47 1014.82 1015.28 1015.44 1015.60 1015.78 1015.86
1007.77 1008.36 1008.74 1008.38 1006.45 1004.09 1006.06 1007.80 1007.22 1007.49 1007.78 1008.30 1008.76 1008.72 1008.56 1008.79 1009.29 1009.92 1010.25 1010.51 1010.85 1011.20 1011.41 1011.44 1011.55 1011.75 1012.25 1012.57 1012.73 1012.93 1013.16 1013.29 1013.62 1014.05 1014.32 1014.39 1014.55 1014.74 1014.84 1014.94 1014.85 1015.03 1015.20
1007.28 1007.78 1007.56 1005.67 1002.66 1002.71 1004.68 1005.05 1005.94 1006.51 1007.19 1007.60 1008.12 1008.18 1007.96 1008.30 1009.10 1009.64 1010.09 1010.68 1011.38 1011.60 1011.33 1011.33 1011.36 1011.85 1012.37 1012.81 1012.98 1013.00 1013.12 1013.33 1013.56 1013.84 1013.90 1013.90 1013.72 1013.67 1014.11 1014.61 1014.66 1014.84 1015.01
1007.13 1007.23 1007.23 1006.26 1004.94 1004.37 1004.65 1004.59 1005.25 1005.89 1006.29 1006.90 1007.55 1007.56 1007.78 1008.40 1009.04 1009.62 1010.08 1010.49 1011.07 1011.51 1011.98 1011.68 1011.49 1011.91 1012.24 1012.55 1013.18 1013.26 1013.12 1013.16 1013.26 1013.30 1013.46 1013.53 1013.46 1013.66 1013.87 1013.89 1014.27 1014.55 1014.86
1007.00 1006.69 1006.62 1006.46 1006.31 1005.78 1004.96 1005.54 1005.69 1005.58 1005.57 1005.85 1006.72 1007.38 1007.68 1008.34 1009.07 1009.15 1009.28 1009.66 1010.08 1009.36 1010.83 1011.98 1012.33 1012.44 1012.70 1012.76 1012.95 1013.04 1013.04 1013.07 1013.19 1013.16 1013.36 1013.30 1013.33 1013.66 1013.54 1013.30 1013.40 1013.84 1014.18
1007.71 1007.21 1006.73 1006.48 1005.94 1005.92 1005.53 1005.07 1005.44 1006.80 1006.13 1005.97 1005.93 1006.39 1007.64 1007.58 1008.82 1009.10 1009.18 1009.55 1010.07 1010.07 1010.35 1011.01 1011.46 1011.81 1012.11 1012.32 1012.55 1012.83 1012.89 1012.88 1012.71 1012.77 1012.98 1013.24 1013.22 1013.14 1013.32 1013.24 1013.21 1013.59 1013.70
1008.41 1007.88 1007.18 1006.59 1006.24 1005.72 1005.40 1005.82 1006.54 1007.37 1006.95 1006.70 1006.24 1006.69 1007.35 1008.27 1008.77 1009.18 1009.16 1009.50 1009.73 1009.73 1009.87 1010.68 1011.24 1011.52 1011.67 1011.93 1012.34 1012.52 1012.63 1012.54 1012.49 1012.64 1012.74 1013.14 1013.26 1013.37 1013.47 1013.67 1013.59 1013.62 1013.80
1008.85 1008.52 1008.35 1007.82 1007.29 1006.59 1006.33 1005.86 1006.55 1006.94 1007.26 1007.61 1007.82 1007.74 1008.34 1008.99 1009.18 1009.75 1010.12 1009.96 1010.05 1010.31 1010.00 1010.31 1010.89 1011.19 1011.72 1011.98 1012.14 1012.30 1012.45 1012.43 1012.51 1012.64 1012.91 1013.10 1013.24 1013.40 1013.54 1013.69 1013.71 1013.79 1013.68
1009.18 1008.93 1008.53 1008.24 1007.90 1007.38 1007.23 1007.08 1006.86 1006.90 1007.26 1007.92 1008.71 1009.02 1008.96 1009.33 1009.71 1009.64 1009.85 1010.13 1009.32 1009.97 1009.97 1010.47 1010.98 1011.38 1011.65 1012.03 1012.32 1012.41 1012.46 1012.53 1012.68 1012.96 1013.08 1013.05 1013.26 1013.39 1013.49 1013.51 1013.52 1013.72 1013.73
1009.14 1008.84 1008.67 1008.50 1007.97 1007.80 1008.09 1007.94 1007.75 1007.56 1007.63 1008.20 1008.78 1009.31 1009.50 1010.06 1009.99 1009.59 1009.65 1009.58 1009.35 1009.33 1009.75 1010.22 1010.73 1011.15 1011.65 1012.02 1012.30 1012.53 1012.65 1012.80 1012.93 1013.00 1013.10 1013.18 1013.33 1013.31 1013.39 1013.42 1013.39 1013.47 1013.59
1009.02 1008.77 1008.49 1008.16 1008.36 1008.34 1008.32 1008.51 1008.66 1008.42 1008.35 1008.57 1009.40 1008.66 1009.00 1009.91 1009.41 1009.32 1009.65 1009.65 1009.45 1009.42 1009.89 1010.41 1010.76 1011.10 1011.65 1012.08 1012.39 1012.55 1012.90 1013.02 1013.02 1012.93 1012.99 1013.08 1013.19 1013.24 1013.17 1013.15 1013.17 1013.15 1013.13
1008.64 1008.64 1008.75 1008.58 1008.19 1008.09 1008.27 1007.96 1007.83 1008.18 1008.60 1008.97 1009.17 1009.61 1009.50 1009.59 1009.01 1009.53 1009.79 1010.05 1009.96 1010.10 1010.45 1010.73 1011.29 1011.54 1012.06 1012.42 1012.60 1012.73 1013.13 1013.27 1013.34 1013.34 1013.24 1013.16 1013.11 1013.16 1013.03 1012.98 1012.94 1012.96 1013.06
1009.13 1008.45 1008.28 1007.72 1007.52 1007.36 1007.48 1007.42 1007.70 1007.96 1008.37 1009.18 1009.28 1009.47 1009.64 1009.54 1009.75 1009.95 1010.18 1010.32 1010.35 1010.67 1010.98 1011.22 1011.78 1012.18 1012.43 1013.04 1013.37 1013.60 1013.90 1013.95 1013.82 1013.83 1013.69 1013.42 1013.19 1013.08 1012.88 1012.76 1012.70 1012.87 1013.06
1008.22 1008.05 1007.83 1007.52 1007.66 1007.22 1007.52 1007.71 1007.81 1008.08 1008.57 1009.11 1009.29 1009.25 1009.30 1009.80 1010.48 1010.51 1010.52 1010.71 1011.05 1011.52 1011.67 1011.91 1012.18 1012.53 1013.01 1013.71 1014.20 1014.51 1014.79 1014.70 1014.13 1014.24 1013.97 1013.73 1013.53 1013.15 1012.80 1012.71 1012.76 1012.79 1012.89
1008.14 1007.66 1007.44 1007.49 1007.52 1007.59 1007.87 1008.12 1008.27 1008.12 1008.39 1009.29 1009.56 1009.85 1010.13 1010.43 1010.63 1010.82 1010.97 1010.92 1011.19 1011.58 1012.30 1012.79 1013.22 1013.80 1014.08 1014.60 1014.92 1015.09 1015.20 1014.93 1014.62 1014.42 1013.97 1013.75 1013.57 1013.27 1013.12 1013.06 1012.95 1013.02 1012.93
1008.21 1007.96 1007.92 1007.77 1007.61 1007.64 1008.03 1008.44 1008.60 1008.85 1009.17 1009.70 1010.05 1010.23 1010.44 1010.65 1010.69 1010.73 1010.90 1011.32 1011.69 1012.20 1012.70 1013.34 1013.85 1014.17 1014.54 1014.92 1015.12 1015.08 1014.98 1014.90 1014.61 1014.30 1014.05 1013.67 1013.50 1013.25 1013.14 1013.13 1012.93 1013.06 1012.89
Wind_Speed
3 3 6 5 6 6 6 6 7 6 6 6 6 6 6 6 5 4 4 4 4 3 1 1 2 2 3 3 4 4 4 4 5 2 2 2 2 5 4 4 5 5 5
7 6 4 5 6 7 6 7 7 7 6 6 6 6 4 6 6 5 2 5 5 5 3 2 1 2 2 3 3 4 5 5 5 6 2 2 3 3 4 6 5 5 4
5 5 4 3 3 6 7 6 7 7 6 6 6 7 6 6 5 4 6 5 5 3 3 3 4 5 4 3 4 6 6 5 5 6 4 2 2 2 3 3 4 5 4
5 5 6 6 4 6 5 6 6 6 6 6 6 6 6 6 6 6 5 4 4 4 4 5 4 4 4 4 5 5 5 6 7 6 4 3 2 2 2 4 4 2 3
7 6 6 6 6 6 6 6 6 6 6 7 7 7 6 5 5 7 7 6 6 6 6 5 4 3 5 4 5 7 7 5 6 6 4 3 3 3 5 3 3 3 2
7 6 6 6 7 7 7 7 7 6 6 7 7 8 7 4 8 11 8 6 5 6 6 6 6 5 4 6 7 6 8 9 6 5 4 6 5 4 4 5 4 3 3
6 6 7 7 7 8 8 8 7 7 6 7 7 7 6 7 10 8 8 5 4 5 6 7 6 5 6 5 6 6 6 6 9 6 6 5 6 7 6 7 5 5 4
7 6 6 6 6 6 6 6 7 4 6 5 6 7 7 6 10 10 8 4 2 5 6 6 7 7 8 7 7 6 5 4 4 3 5 6 6 9 11 7 5 3 2
1 10 16 14 2 4 5 6 6 5 5 6 5 7 6 7 11 11 9 5 3 2 3 5 6 7 8 9 6 6 5 3 4 8 6 9 9 12 8 5 5 6 3
2 6 4 8 9 10 21 8 6 6 6 5 6 7 8 8 12 12 8 4 5 4 5 4 10 8 8 7 6 6 6 5 6 3 3 5 7 9 12 8 5 7 3
3 5 7 7 6 12 7 25 11 9 7 7 8 7 8 8 10 14 13 6 5 4 5 4 4 12 10 9 7 5 6 5 6 5 4 3 5 8 8 8 6 6 5
3 3 1 10 18 17 20 25 14 11 10 10 8 8 7 6 11 14 13 11 7 3 4 4 6 12 11 9 7 8 7 5 4 4 4 4 4 5 6 7 8 7 7
4 4 3 14 24 9 19 18 11 11 9 8 8 7 5 4 4 10 13 8 6 4 1 2 6 8 7 4 3 7 6 3 3 2 3 4 6 7 5 4 5 6 5
5 6 6 9 10 7 4 8 9 9 9 8 8 5 4 4 4 4 5 5 5 2 4 2 6 7 7 5 4 3 3 3 3 3 3 2 1 3 5 6 6 6 5
8 5 5 8 11 11 5 5 3 4 7 6 3 2 5 4 3 6 7 6 6 12 8 3 1 2 3 4 3 4 3 4 3 3 3 3 2 2 3 6 6 5 6
8 7 7 6 6 4 4 3 13 10 5 2 10 10 2 10 12 9 11 13 11 12 3 3 4 5 5 4 4 3 3 5 4 3 3 2 2 1 1 1 2 1 5
8 9 7 7 8 7 2 5 5 2 9 9 12 13 10 11 12 10 11 9 7 9 4 4 2 2 2 2 2 2 2 3 1 1 1 1 2 1 2 1 1 1 1
5 7 4 6 7 7 8 4 5 4 2 3 9 7 9 6 7 6 6 9 5 3 1 4 3 3 2 2 2 1 1 0 2 3 2 2 2 1 1 1 1 2 3
3 4 4 3 4 6 5 5 5 6 8 7 3 6 9 10 6 8 3 3 3 3 3 5 4 4 4 3 2 3 3 3 2 1 1 1 0 0 1 2 2 3 3
1 1 2 3 4 4 5 4 5 6 5 4 5 2 3 4 2 2 1 1 1 2 5 6 5 5 4 4 4 3 3 2 2 1 2 2 2 1 1 2 2 2 3
3 3 4 2 2 2 1 2 2 2 3 4 6 4 6 0 4 4 3 3 3 6 5 5 4 5 4 4 4 4 3 2 1 2 2 2 2 1 2 2 3 3 3
3 3 2 3 3 3 4 4 4 3 1 1 1 3 7 3 8 7 7 7 5 6 6 7 6 6 6 5 4 6 5 5 5 4 4 2 3 3 3 3 3 2 3
5 4 5 4 3 4 2 3 4 3 4 4 3 5 4 6 5 6 7 6 7 5 5 6 6 8 8 7 7 6 5 5 4 4 4 4 4 2 2 1 1 2 1
5 5 5 4 1 3 4 4 5 11 9 7 7 7 6 5 4 6 5 5 5 5 6 7 8 10 9 7 6 5 4 4 4 4 6 4 4 5 4 0 1 1 1
5 4 1 2 2 5 8 6 7 7 8 7 7 7 6 4 5 5 6 5 7 8 9 8 8 10 11 10 8 6 6 5 5 5 4 5 5 7 4 4 3 3 2
6 5 5 6 6 8 8 7 7 6 6 4 5 5 5 5 5 4 5 6 7 7 9 8 9 11 11 8 7 6 6 6 6 5 4 3 5 4 2 3 4 2 3
Wind_Direction
138 320 166 163 177 152 155 142 139 127 148 156 166 167 166 177 169 155 175 182 142 163 144 141 287 256 250 236 208 188 173 131 127 113 119 83 92 113 93 83 84 72 82
161 197 204 191 156 151 146 150 145 152 166 177 187 186 177 144 144 161 122 109 121 122 128 102 72 341 348 291 229 185 140 128 127 147 121 122 94 125 128 125 124 104 92
185 166 172 186 165 145 145 153 150 156 189 196 169 140 121 122 124 101 135 136 128 136 121 78 41 37 21 34 68 92 104 106 114 146 135 127 117 140 133 129 131 110 118
172 176 171 179 195 163 167 172 159 177 170 164 152 150 163 166 161 153 149 150 143 111 95 95 84 98 92 94 106 111 112 109 116 129 122 120 118 148 136 142 140 128 142
181 193 190 179 171 162 168 171 183 184 176 178 165 162 185 175 163 153 160 184 171 164 138 121 120 139 116 146 137 139 130 127 133 137 133 128 150 166 178 163 148 144 168
171 188 176 177 174 170 166 175 188 203 194 179 177 170 189 199 160 143 135 159 151 162 160 137 140 130 120 90 89 119 156 154 154 140 161 174 176 163 155 167 153 142 196
171 203 189 184 179 175 171 176 196 200 192 187 188 182 176 158 159 152 144 131 171 176 162 155 173 160 157 143 130 118 106 141 173 155 159 179 168 175 165 177 176 175 179
187 211 188 184 182 177 178 188 185 188 195 202 202 195 158 182 176 161 161 154 132 184 179 157 146 164 174 159 159 160 166 149 142 148 170 178 183 175 185 184 172 163 307
223 37 21 360 292 182 211 199 189 182 203 213 206 200 167 178 191 176 158 169 203 201 174 163 147 161 170 168 171 168 158 143 82 108 125 167 164 175 172 146 175 176 213
47 90 316 355 290 17 324 245 199 183 189 200 215 204 188 179 195 187 172 167 191 204 209 187 155 165 181 168 143 169 172 191 152 133 107 96 159 176 173 192 184 192 177
106 171 219 223 242 229 247 265 215 196 186 192 204 208 206 176 191 197 190 180 191 200 199 200 199 170 178 180 159 145 176 152 174 167 173 165 160 166 186 202 205 206 205
173 177 28 303 275 220 217 235 202 196 190 197 203 211 207 192 181 200 201 211 184 178 207 205 198 180 183 177 165 162 156 122 145 178 173 184 182 194 206 208 209 205 219
227 251 337 316 339 159 205 194 190 191 194 202 206 201 188 192 180 193 201 228 297 349 278 227 181 165 144 147 190 173 161 168 185 190 209 214 205 213 172 186 206 213 220
251 243 211 279 295 315 255 184 188 195 197 200 212 217 196 147 123 177 198 180 169 100 334 58 155 157 163 171 181 215 207 206 214 217 215 240 255 178 196 189 193 202 207
355 338 247 234 257 263 301 1 275 228 215 186 185 215 165 138 173 192 176 154 176 172 161 205 203 203 211 225 211 205 213 224 239 223 255 261 194 201 246 203 201 183 206
27 360 356 342 332 314 178 117 51 357 336 181 134 144 355 116 151 146 124 127 135 136 119 164 185 187 190 197 197 216 223 224 227 229 235 256 262 292 261 18 123 198 228
33 12 358 5 351 347 95 131 151 75 36 24 111 123 122 149 162 172 146 129 133 133 138 148 171 180 201 206 221 218 231 236 179 95 61 299 282 139 97 23 10 59 295
11 39 12 351 1 22 1 93 124 131 108 54 18 84 81 115 102 90 156 155 128 45 111 133 169 163 189 214 195 215 252 306 79 61 27 342 313 334 291 273 241 198 215
6 359 5 18 359 14 10 10 52 67 95 86 56 38 54 51 71 98 35 299 92 155 142 120 120 117 107 102 102 95 91 91 79 67 66 102 322 164 271 291 283 258 250
193 244 32 348 13 27 6 15 46 70 87 82 101 105 122 192 215 191 143 235 359 155 135 128 128 128 134 141 124 106 89 97 127 126 74 58 20 16 308 302 294 275 261
304 316 285 239 320 317 132 36 32 82 82 64 140 199 181 314 248 133 137 28 74 77 90 109 125 124 127 125 126 129 140 151 150 137 148 185 224 237 238 249 256 249 249
322 309 279 247 227 234 233 200 190 129 150 101 161 78 100 71 72 97 101 96 90 88 82 85 78 75 65 65 61 81 75 62 40 21 5 280 234 242 249 252 265 288 307
288 295 283 279 270 228 228 214 177 178 137 149 124 116 104 93 86 90 93 85 87 82 83 99 108 94 84 71 59 53 55 34 15 12 1 350 339 314 286 298 76 101 75
286 267 281 271 296 51 116 93 113 121 128 119 110 104 101 97 102 97 103 92 90 81 78 73 79 92 85 73 66 55 35 7 17 358 350 356 340 338 311 295 133 100 227
306 317 3 68 73 128 112 105 106 108 102 100 101 97 98 108 110 92 104 107 102 94 86 89 85 81 78 78 71 66 50 29 42 350 350 345 333 343 20 16 15 5 320
17 30 44 43 59 82 85 86 85 80 89 95 99 108 109 115 100 94 105 105 105 102 102 98 100 95 87 77 67 55 31 13 1 343 335 337 333 335 357 339 351 338 323